Regional Weather Roundup
Issued by NWS Jackson, KY

Home | Current Version | Previous Version | Graphics & Text | Print | Product List | Glossary On
Versions: 1 2 3 4 5 6 7 8 9 10 11 12 13 14 15 16 17 18 19 20 21 22 23 24 25 26 27 28 29 30 31 32 33 34 35 36 37 38 39 40 41 42 43 44 45 46 47 48 49 50
000
ASUS43 KJKL 281010
RWRJKL

EAST KENTUCKY HOURLY WEATHER ROUNDUP
NATIONAL WEATHER SERVICE JACKSON KY
600 AM EDT FRI APR 28 2017

NOTE: "FAIR" INDICATES FEW OR NO CLOUDS BELOW 12,000 FEET WITH
NO SIGNIFICANT WEATHER AND/OR OBSTRUCTIONS TO VISIBILITY.

* THESE REPORTS ARE NOT UNDER NWS QUALITY CONTROL AND MAY NOT
  REPORT WEATHER SUCH AS PRECIPITATION AND FOG.

KYZ079-080-083-085-087-088-110-112-115-119-120-281100
...EASTERN KENTUCKY...

CITY           SKY/WX    TMP DP  RH WIND       PRES   REMARKS
JACKSON        CLEAR     53  48  83 NE3       29.99R
LONDON         CLEAR     51  48  89 CALM      29.98R
SOMERSET*      CLEAR     46  46 100 CALM      29.98R
MONTICELLO*    CLEAR     46  46 100 NE8       29.98R
WILLIAMSBURG*  SUNNY     48  48 100 CALM      29.98R
MIDDLESBORO*   FOG       50  50 100 CALM      30.00R VSB 3/4
HARLAN APT*    CLOUDY    54  52  94 NE3       29.99S VSB 1/4
PIKE CO APT*     N/A     54  54 100 NE5       30.00R
BIG SANDY APT* PTSUNNY   52  52 100 E5        30.00S
MOREHEAD APT*  SUNNY     48  46  93 CALM      30.00R FOG
ASHLAND*       CLEAR     46  45  93 CALM      29.99
$$

KYZ035-036-041-042-044-050-067-078-099-281100
...CENTRAL KENTUCKY...

CITY           SKY/WX    TMP DP  RH WIND       PRES   REMARKS
MT STERLING*   CLOUDY    50  46  87 CALM      30.00S
FLEMING/MASON* CLOUDY    46  45  98 SE3       30.00S FOG
DANVILLE*      CLEAR     45  43  93 CALM      29.99R
LEXINGTON      CLEAR     47  42  83 CALM      29.98R
FRANKFORT      CLEAR     46  42  86 CALM      29.97R
LOUISVILLE     CLOUDY    51  48  89 SE3       29.95R
LEBANON*         N/A     50  46  87 E3        29.97R
GLASGOW*       CLOUDY    49  49 100 E5        29.94S
BOWLING GREEN  CLOUDY    50  49  96 E5        29.92F
$$

KYZ091>093-OHZ055-061-077-WVZ005-015-034-035-042-281100
...SOUTHERN OHIO/WEST VIRGINIA...

CITY           SKY/WX    TMP DP  RH WIND       PRES   REMARKS
COVINGTON      CLOUDY    51  46  83 NE9       29.97R
COLUMBUS       CLOUDY    46  45  96 E3        30.00R
DAYTON         CLOUDY    44  41  89 NE5       29.98S
WILMINGTON     PTCLDY    44  44 100 NE3       29.98R
HUNTINGTON     CLEAR     50  47  89 CALM      30.00R
CHARLESTON     PTCLDY    52  51  97 CALM      30.01R
PINEVILLE*     FOG       57  56  97 MISG      30.06R VSB 1
BECKLEY        CLOUDY    56  52  86 CALM      30.03R
BLUEFIELD      CLEAR     55  53  93 SW3       30.04R
LOGAN CO APT*  CLOUDY    55  54  94 NE3       30.01R
$$

VAZ002-007-008-TNZ017-027-036-066-071-281100
...SOUTHWEST VIRGINIA/EAST TENNESSEE...

CITY           SKY/WX    TMP DP  RH WIND       PRES   REMARKS
WISE*          CLEAR     55  50  82 CALM      30.03S
JONESVILLE*    FOG       54  54 100 CALM      30.00S VSB 1/4
ABINGDON*      MOCLDY    58  58 100 CALM      30.02R FOG
BRISTOL        FOG       56  56 100 CALM      30.00R VSB 1/4
MORRISTOWN*    FOG       55  55 100 E3        29.96S VSB 0
SEVIERVILLE*   PTSUNNY   52  52 100 CALM      29.96R VSB 1
KNOXVILLE      PTCLDY    54  52  93 NE3       29.95R
LAFOLLETTE*      N/A     50  50 100 CALM      30.00R
OAK RIDGE      CLOUDY    54  53  97 CALM      29.98R FOG
CROSSVILLE     CLEAR     48  46  93 CALM      29.97R
NASHVILLE      MOCLDY    53  51  93 CALM      29.91S
$$

...KEY TO REMARKS...
VSB - VISIBILITY IN MILES
WCI - WIND CHILL INDEX
HX  - HEAT INDEX

$$



USA.gov is the U.S. government's official web portal to all federal, state and local government web resources and services.